Location: G�rlitz
(51.1670°N, 15.0000°E)
Time: 20:28:07
(UTC+01:00)

Envisat - Pass Details

Date: 15 February 2026
Orbit: 761 x 763 km, 98.4° (Epoch: 11 March)

Event Time Altitude Azimuth Distance (km) Brightness Sun altitude
Rises 03:11:47 0° 12° (NNE) 3,238 6.7 -37.5°
Reaches altitude 10° 03:14:06 10° 10° (N) 2,307 5.8 -37.2°
Enters shadow 03:14:56 15° 9° (N) 1,982 5.4 -37.0°
